Regional Weather Roundup
Issued by NWS

Home | Current Version | Previous Version | Text Only | Print | Product List | Glossary Off
Versions: 1 2 3 4 5 6 7 8 9 10 11 12 13 14 15 16 17 18 19 20 21 22 23 24 25 26 27 28 29 30 31 32 33 34 35 36 37 38 39 40 41 42 43 44 45 46 47 48 49 50

000
ASUS45 KCYS 092110
RWRWY

WYOMING REGIONAL WEATHER ROUNDUP
NATIONAL WEATHER SERVICE CHEYENNE WY
300 PM MDT WED JUL 09 2014

NOTE:  "FAIR" INDICATES FEW OR NO CLOUDS BELOW 12,000 FEET
WITH NO SIGNIFICANT WEATHER AND/OR OBSTRUCTIONS TO VISIBILITY.

WYZ001-092200-
YELLOWSTONE NATIONAL PARK

CITY           SKY/WX    TMP DP  RH WIND       PRES   REMARKS
LK YELLOWSTONE   N/A     76  33  21 VRB6G20   30.24F
W YELLOWSTONE  NOT AVBL

$$
WYZ002>013-054>058-071-098>099-092200-
NORTHERN WYOMING

CITY           SKY/WX    TMP DP  RH WIND       PRES   REMARKS
JACKSON        SUNNY     86  36  16 SW16      30.12F
CODY           NOT AVBL
GREYBULL       MOSUNNY   94  40  15 VRB5      29.89F HX  90
WORLAND        SUNNY     93  45  19 N6        29.90F
SHERIDAN       SUNNY     89  49  25 SE8       29.94F
BUFFALO        SUNNY     84  46  26 SE7       30.02F
GILLETTE       SUNNY     86  48  26 E5        29.99F
HULETT         FAIR      81  50  34 MISG      30.03
NEWCASTLE      FAIR      86  46  25 S13       30.00

$$
WYZ014>020-022>026-101>103-092200-
CENTRAL WYOMING

CITY           SKY/WX    TMP DP  RH WIND       PRES   REMARKS
BIG PINEY      LGT RAIN  83  34  17 NW3       30.17F
PINEDALE       CLEAR     86  32  14 NW14      30.17F
DUBOIS         FAIR      84  23  10 W22G28    30.14F
LANDER         SUNNY     95  33  11 E9        29.98F HX  90
RIVERTON       SUNNY     91  38  15 E8        30.00F
CASPER         SUNNY     91  39  16 SW5       30.01F
DOUGLAS        SUNNY     90  50  25 SW8       30.02F

$$
WYZ021-027>030-104>119-092200-
SOUTHERN WYOMING

CITY           SKY/WX    TMP DP  RH WIND       PRES   REMARKS
EVANSTON       MOSUNNY   87  44  22 SW16G26   30.20F
KEMMERER       PTCLDY   N/A N/A N/A SW9         N/A
FORT BRIDGER   FAIR      88  33  14 W12       30.20F
ROCK SPRINGS   MOSUNNY   90  30  11 SW13G21   30.13F
DIXON          LGT RAIN  84  38  19 W8        30.15F
RAWLINS        SUNNY     90  22   8 W18G29    30.13F
SARATOGA       FAIR      90  28  11 W14G24    30.16F
LARAMIE        MOSUNNY   83  36  18 N13       30.17F
CHEYENNE       PTSUNNY   85  50  29 S10G17    30.11F
TORRINGTON     SUNNY     90  52  27 VRB5      29.96F

$$



USA.gov is the U.S. government's official web portal to all federal, state and local government web resources and services.